Regional Weather Roundup
Issued by NWS Sterling, VA

Home | Current Version | Previous Version | Text Only | Print | Product List | Glossary Off
Versions: 1 2 3 4 5 6 7 8 9 10 11 12 13 14 15 16 17 18 19 20 21 22 23 24 25 26 27 28 29 30 31 32 33 34 35 36 37 38 39 40 41 42 43 44 45 46 47 48 49 50

000
ASUS41 KLWX 030310
RWRLWX

REGIONAL WEATHER ROUNDUP
NATIONAL WEATHER SERVICE BALTIMORE MD/WASHINGTON DC
1100 PM EDT SUN AUG 02 2015

Note: "FAIR" indicates few or no clouds below 12,000 feet
with no significant weather and/or obstructions to visibility.
 TC=TEMPERATURE CELSIUS

 * =Non NWS site. Station does not report precipitation (e.g. rain,
    snow, etc.), thunder, or fog.

DCZ001-MDZ009-015-VAZ040>042-051-053>054-030400-
WASHINGTON METRO

CITY           SKY/WX    TMP DP  RH WIND       PRES   REMARKS
WASHINGTON NAT CLEAR     78  62  57 S8        29.91F
DULLES         CLEAR     71  62  73 CALM      29.91F
LEESBURG*      CLEAR     72  64  78 SW5       29.92F
MANASSAS*      CLEAR     68  66  94 CALM      29.92S
GAITHERSBURG*  CLEAR     73  59  60 CALM      29.95F

$$

MDZ006>007-011-014-030400-
BALTIMORE METRO

CITY           SKY/WX    TMP DP  RH WIND       PRES   REMARKS
BWI AIRPORT    PTCLDY    73  60  63 SW3       29.90S
MD SCIENCE CTR   N/A     79  59  50 MISG      29.90S
MARTIN STATE   CLEAR     79  63  57 S3        29.91S
ANNAPOLIS      CLEAR     75  61  61 CALM      29.90S
FORT MEADE*    CLEAR     64  63  94 CALM      29.93S

$$

MDZ012-015-019>023-030400-
MARYLAND EASTERN SHORE

CITY           SKY/WX    TMP DP  RH WIND       PRES   REMARKS
OCEAN CITY     MOCLDY    75  72  90 CALM      29.92F
SALISBURY      PTCLDY    72  70  93 CALM      29.92F
BAY BRIDGE AP*   N/A     77  61  57 SW5       29.91S
CAMBRIDGE*     CLEAR     72  66  83 CALM      29.92F
EASTON*        CLEAR     74  66  76 CALM      29.95S

$$

MDZ017>025-030400-
SOUTHERN MARYLAND

CITY           SKY/WX    TMP DP  RH WIND       PRES   REMARKS
PATUXENT RIVER CLEAR     66  63  90 SW3       29.92F
ST INIGOES     CLEAR     68  64  87 CALM      29.92F
LEONARDTOWN*   CLEAR     66  63  88 CALM      29.95F

$$

MDZ003>005-030400-
NORTH CENTRAL MARYLAND

CITY           SKY/WX    TMP DP  RH WIND       PRES   REMARKS
FREDERICK*     CLEAR     70  64  83 CALM      29.93F
HAGERSTOWN APT CLEAR     75  60  59 S6        29.90F
WESTMINSTER*   CLEAR     75  61  60 SW7       29.92F

$$

MDZ501>502-030400-
WESTERN MARYLAND

CITY           SKY/WX    TMP DP  RH WIND       PRES   REMARKS
OAKLAND*       CLEAR     64 N/A N/A SW7       30.03S
CUMBERLAND*    CLEAR     72  61  68 CALM      29.95S

$$

VAZ025>031-030400-
SHENANDOAH VALLEY

CITY           SKY/WX    TMP DP  RH WIND       PRES   REMARKS
WINCHESTER*    CLEAR     73  61  64 SW3       29.93S
FRONT ROYAL*   FAIR      72  63  73 S5        29.92S
LURAY*         FAIR      70  64  83 CALM      29.95S
NEW MARKET*    FAIR      67  60  79 CALM      29.94S
STAUNTON*      CLEAR     67  61  81 CALM      29.99S
WAYNESBORO*    FAIR      66  59  79 SW6       29.98F

$$

WVZ021-048>050-054>055-030400-
EASTERN WEST VIRGINIA PANHANDLE

CITY           SKY/WX    TMP DP  RH WIND       PRES   REMARKS
MARTINSBURG    CLEAR     70  61  73 S3        29.91S
PETERSBURG*    CLEAR    N/A N/A N/A CALM      29.96S

$$

VAZ036>039-050-030400-
CENTRAL FOOTHILLS

CITY           SKY/WX    TMP DP  RH WIND       PRES   REMARKS
CHARLOTTESVILL CLEAR     70  64  81 SW3       29.94F
CULPEPER*      CLEAR     64  63  95 CALM      29.94S
ORANGE*        CLEAR     66  64  94 CALM      29.95F
GORDONSVILLE*  FAIR      64  63  94 CALM      29.94F
WARRENTON*     FAIR      64  63  97 CALM      29.92S

$$

VAZ055>057-030400-
NORTH AND CENTRAL PIEDMONT

CITY           SKY/WX    TMP DP  RH WIND       PRES   REMARKS
FREDERICKSBRG* CLEAR     70  67  89 CALM      29.92S
STAFFORD*      CLEAR     64  62  94 CALM      29.97S

$$

NCZ024-NYZ072-PAZ021-071-VAZ022-071-030400-
OTHER REGIONAL OBSERVATIONS

CITY           SKY/WX    TMP DP  RH WIND       PRES   REMARKS
NEW YORK CITY  CLEAR     78  61  55 CALM      29.89F
PHILADELPHIA   PTCLDY    78  62  57 S8        29.89F
PITTSBURGH     CLEAR     76  61  59 SW7       29.89F
ROANOKE        CLEAR     70  60  70 NE5       29.99F
RICHMOND       PTCLDY    74  63  68 CALM      29.93F
RALEIGH        MOCLDY    73  61  65 CALM      29.95S

$$

ANZ530>537-030400-
MARINE OBSERVATIONS

STATION/POSITION TIME  TEMP    WIND        PRES
                       AIR SEA DIR/SP/G
                 (UTC) (F)     (DEG/KT/KT) (MB)
THOMAS PT LIGHT  NOT AVBL
BALT KEY BRIDGE  0200   80     230/  7/  8 1012.2F
COVE POINT       0200   79     270/  5/  6 1014.1R
LEWISETTA        0200   79 85  280/  3/  4 1013.4R
SOLOMONS ISLAND  0200      85                N/A
PINEY POINT      0200          280/  4/  5   N/A

$$



USA.gov is the U.S. government's official web portal to all federal, state and local government web resources and services.